MGGT

La Aurora International Airport

Airport
ICAO code
MGGT
IATA Code
GUA
Summary
ICAO Region
CARSAM
ICAO Territory
Location

Aurora, Guatemala Department

Serving
Guatemala City
Elevation
4951 ft
Coordinates
14° 34' 60" N , 90° 31' 39" W
KCC
Metar
Observation
MGGT 271600Z 02008KT 9999 FEW018 SCT100 BKN200 21/17 Q1024 A3024
Station
Guatemala Aeropuertola Aurora
Date/Time
2022-11-27 16:00:00
Wind direction
20°
Wind speed
08 kts
Lowest cloud amount
few clouds
Temperature
21°C
Dew point
17°C
Humidity
77%
QNH
1024 hPa
Weather condition
n/a

La Aurora International Airport serves Guatemala City, Guatemala.

Climatology

Tropical savannah climate (Köppen climate classification Aw)

Runways

Designator Length Width Surface Rops
1/19 2987 60 ASP Yes/Yes

Airport map

Aerial View

SKYbrary Partners:

Safety knowledge contributed by: